Location: Erlenbrunn
(49.1717°N, 7.6142°E)
Time: 18:31:24
(UTC+00:00)

Cosmos 1151 Rocket - Pass Details

Date: 25 November 2020
Orbit: 593 x 614 km, 82.5° (Epoch: 23 January)

Event Time Altitude Azimuth Distance (km) Brightness Sun altitude
Rises 17:28:25 0° 178° (S) 2,839 6.6 -17.5°
Reaches altitude 10° 17:30:38 10° 174° (S) 1,938 5.7 -17.9°
Maximum altitude 17:34:51 59° 96° (E) 694 2.9 -18.6°
Enters shadow 17:36:59 27° 26° (NNE) 1,155 4.1 -18.9°
